Alexander City, AL

7:34 AM CDT on September 18, 2019 (GMT -0500)
Russell

Weather History for KALX - August, 2019

Change the Weather History Date:

Monday, August 19, 2019

  Actual Average (KAUO) Record (KAUO)
Temperature  
Mean Temperature 82 °F -  
Max Temperature 90 °F 89 °F 98 °F (1999)
Min Temperature 73 °F 67 °F 58 °F (1967)
Cooling Degree Days 16    
Growing Degree Days 32 (Base 50)    
Moisture  
Dew Point 74 °F    
Average Humidity 79    
Maximum Humidity 96    
Minimum Humidity 56    
Precipitation  
Precipitation 0.00 in - - ()
Sea Level Pressure  
Sea Level Pressure 30.05 in    
Wind  
Wind Speed 2 mph (ESE)    
Max Wind Speed 10 mph    
Max Gust Speed 18 mph    
Visibility 10 miles    
Events      
Averages and records for this station are not official NWS values.
T = Trace of Precipitation, MM = Missing Value Source: NWS Daily Summary

Daily Weather History Graph

Daily Weather History Graph

Search for Another Location

Airport or City:

Astronomy

Aug. 19, 2019 Rise Set
Actual Time 6:09 AM CDT 7:24 PM CDT
Civil Twilight 5:43 AM CDT 7:50 PM CDT
Nautical Twilight 5:13 AM CDT 8:21 PM CDT
Astronomical Twilight 4:41 AM CDT 8:53 PM CDT
Moon 9:57 PM CDT (8/19) 9:40 AM CDT (8/19)
Length of Visible Light 14h 06m
Length of Day
13h 15m
Waning Gibbous, 85% of the Moon is Illuminated
Aug 19
Waning Gibbous
Aug 23
Last Quarter
Aug 30
New
Sep 5
First Quarter
Sep 13
Full

Hourly Weather History & Observations

Time (CDT) Temp. Heat Index Dew Point Humidity Pressure Visibility Wind Dir Wind Speed Gust Speed Precip Events Conditions
12:15 AM 80.8 °F 86.1 °F 74.5 °F 81% 30.02 in 10.0 mi SSE 4.6 mph - N/A   Clear
12:35 AM 80.6 °F 85.9 °F 74.5 °F 82% 30.03 in 10.0 mi South 3.5 mph - N/A   Scattered Clouds
12:55 AM 80.6 °F 85.9 °F 74.7 °F 82% 30.02 in 10.0 mi SSE 4.6 mph - N/A   Scattered Clouds
1:15 AM 80.1 °F 84.8 °F 74.5 °F 83% 30.02 in 10.0 mi Calm Calm - N/A   Scattered Clouds
1:35 AM 79.7 °F - 74.8 °F 85% 30.01 in 10.0 mi Calm Calm - N/A   Clear
1:55 AM 79.2 °F - 74.8 °F 87% 30.01 in 10.0 mi Calm Calm - N/A   Clear
2:15 AM 78.8 °F - 74.7 °F 87% 30.01 in 10.0 mi Calm Calm - N/A   Clear
2:35 AM 78.6 °F - 75.0 °F 89% 30.01 in 10.0 mi Calm Calm - N/A   Clear
2:55 AM 78.3 °F - 74.8 °F 89% 30.01 in 10.0 mi Calm Calm - N/A   Clear
3:15 AM 77.9 °F - 74.7 °F 90% 30.01 in 10.0 mi Calm Calm - N/A   Clear
3:35 AM 76.6 °F - 74.5 °F 93% 30.01 in 10.0 mi Calm Calm - N/A   Clear
3:55 AM 77.2 °F - 74.8 °F 92% 30.02 in 10.0 mi Calm Calm - N/A   Clear
4:35 AM 77.2 °F - 74.8 °F 92% 30.02 in 10.0 mi Calm Calm - N/A   Clear
4:55 AM 76.6 °F - 74.8 °F 94% 30.03 in 10.0 mi Calm Calm - N/A   Clear
5:15 AM 75.9 °F - 74.3 °F 95% 30.03 in 10.0 mi Calm Calm - N/A   Clear
5:35 AM 75.4 °F - 73.8 °F 95% 30.04 in 10.0 mi Calm Calm - N/A   Clear
5:55 AM 75.9 °F - 74.1 °F 94% 30.04 in 10.0 mi Calm Calm - N/A   Clear
6:15 AM 75.6 °F - 74.3 °F 96% 30.04 in 10.0 mi Calm Calm - N/A   Clear
6:35 AM 75.2 °F - 73.8 °F 95% 30.05 in 10.0 mi Calm Calm - N/A   Clear
6:55 AM 77.0 °F - 74.7 °F 92% 30.06 in 10.0 mi Calm Calm - N/A   Clear
7:15 AM 77.7 °F - 74.7 °F 90% 30.06 in 10.0 mi Calm Calm - N/A   Clear
7:35 AM 77.2 °F - 74.5 °F 91% 30.06 in 10.0 mi Calm Calm - N/A   Clear
7:55 AM 77.9 °F - 74.7 °F 90% 30.06 in 10.0 mi Calm Calm - N/A   Clear
8:15 AM 78.8 °F - 74.3 °F 86% 30.06 in 10.0 mi Calm Calm - N/A   Clear
8:35 AM 78.8 °F - 74.1 °F 85% 30.06 in 10.0 mi Calm Calm - N/A   Clear
8:55 AM 79.0 °F - 74.5 °F 86% 30.06 in 10.0 mi Calm Calm - N/A   Clear
9:15 AM 79.2 °F - 74.3 °F 85% 30.07 in 10.0 mi Calm Calm - N/A   Clear
9:35 AM 79.3 °F - 74.7 °F 86% 30.08 in 10.0 mi Calm Calm - N/A   Clear
9:55 AM 79.3 °F - 74.5 °F 85% 30.09 in 10.0 mi Calm Calm - N/A   Clear
10:35 AM 80.4 °F 85.8 °F 75.2 °F 84% 30.09 in 10.0 mi Calm Calm - N/A   Clear
10:55 AM 81.7 °F 88.3 °F 75.2 °F 81% 30.09 in 10.0 mi Calm Calm - N/A   Clear
11:15 AM 81.5 °F 87.8 °F 75.2 °F 81% 30.09 in 10.0 mi Calm Calm - N/A   Clear
11:35 AM 82.8 °F 90.1 °F 75.4 °F 78% 30.10 in 10.0 mi ESE 3.5 mph - N/A   Clear
11:55 AM 82.8 °F 90.1 °F 75.4 °F 78% 30.09 in 10.0 mi East 3.5 mph - N/A   Clear
12:15 PM 82.9 °F 89.9 °F 74.8 °F 76% 30.09 in 10.0 mi SE 3.5 mph - N/A   Clear
12:35 PM 83.5 °F 91.2 °F 75.4 °F 76% 30.09 in 10.0 mi ESE 3.5 mph - N/A   Clear
12:55 PM 83.8 °F 92.1 °F 75.4 °F 76% 30.08 in 10.0 mi East 4.6 mph - N/A   Clear
1:15 PM 84.2 °F 92.6 °F 75.4 °F 75% 30.08 in 10.0 mi ESE 8.1 mph - N/A   Clear
1:35 PM 85.1 °F 94.1 °F 75.4 °F 73% 30.07 in 10.0 mi East 6.9 mph - N/A   Clear
1:55 PM 86.2 °F 95.1 °F 75.0 °F 69% 30.05 in 10.0 mi East 5.8 mph - N/A   Clear
2:15 PM 87.8 °F 96.6 °F 74.1 °F 64% 30.04 in 10.0 mi East 10.4 mph - N/A   Clear
2:35 PM 89.1 °F 98.5 °F 74.5 °F 62% 30.03 in 10.0 mi East 5.8 mph - N/A   Clear
2:55 PM 88.9 °F 96.1 °F 72.5 °F 58% 30.01 in 10.0 mi ESE 8.1 mph - N/A   Clear
3:15 PM 87.8 °F 95.6 °F 73.2 °F 62% 30.01 in 10.0 mi ENE 3.5 mph - N/A   Clear
3:35 PM 88.7 °F 95.7 °F 72.0 °F 58% 30.00 in 10.0 mi East 4.6 mph - N/A   Clear
3:55 PM 88.5 °F 95.8 °F 72.7 °F 59% 30.00 in 10.0 mi East 5.8 mph - N/A   Clear
4:15 PM 90.0 °F 97.4 °F 72.5 °F 56% 30.01 in 10.0 mi ENE 6.9 mph - N/A   Clear
4:35 PM 89.1 °F 96.5 °F 72.7 °F 58% 30.01 in 10.0 mi ENE 4.6 mph - N/A   Clear
4:55 PM 88.9 °F 96.6 °F 73.0 °F 59% 30.01 in 10.0 mi NE 4.6 mph - N/A   Clear
5:15 PM 88.7 °F 97.2 °F 73.6 °F 61% 30.01 in 10.0 mi ENE 6.9 mph - N/A   Clear
5:55 PM 87.6 °F 94.3 °F 72.0 °F 60% 30.01 in 10.0 mi East 4.6 mph - N/A   Clear
6:15 PM 87.8 °F 95.2 °F 72.9 °F 61% 30.03 in 10.0 mi Calm Calm - N/A   Clear
6:35 PM 86.9 °F 94.5 °F 73.4 °F 64% 30.04 in 10.0 mi NNE 3.5 mph - N/A   Clear
6:55 PM 85.3 °F 92.6 °F 73.8 °F 68% 30.03 in 10.0 mi South 3.5 mph - N/A   Clear
7:15 PM 84.2 °F 90.9 °F 73.4 °F 70% 30.02 in 10.0 mi South 4.6 mph - N/A   Clear
7:35 PM 82.4 °F 87.2 °F 71.8 °F 70% 30.05 in 10.0 mi SW 4.6 mph 18.4 mph N/A   Clear
7:55 PM 81.5 °F 85.5 °F 71.1 °F 70% 30.07 in 10.0 mi West 6.9 mph - N/A   Clear
8:15 PM 80.6 °F 84.4 °F 71.1 °F 73% 30.08 in 10.0 mi SW 3.5 mph - N/A   Clear
8:35 PM 79.7 °F - 71.4 °F 76% 30.09 in 10.0 mi SSE 4.6 mph - N/A   Clear
8:55 PM 78.8 °F - 71.1 °F 77% 30.09 in 10.0 mi South 3.5 mph - N/A   Clear
9:15 PM 78.6 °F - 71.2 °F 78% 30.09 in 10.0 mi Calm Calm - N/A   Clear
9:35 PM 78.1 °F - 71.2 °F 79% 30.09 in 10.0 mi Calm Calm - N/A   Clear
9:55 PM 77.5 °F - 71.6 °F 82% 30.08 in 10.0 mi Calm Calm - N/A   Clear
10:15 PM 75.9 °F - 71.2 °F 85% 30.09 in 10.0 mi Calm Calm - N/A   Clear
10:35 PM 76.5 °F - 71.1 °F 83% 30.08 in 10.0 mi NNW 6.9 mph - N/A   Clear
10:55 PM 76.8 °F - 70.7 °F 81% 30.07 in 10.0 mi Calm Calm - N/A   Clear
11:35 PM 73.8 °F - 70.7 °F 90% 30.08 in 10.0 mi Calm Calm - N/A   Clear
11:55 PM 73.6 °F - 70.7 °F 91% 30.08 in 10.0 mi Calm Calm - N/A   Clear